Starlink 11133

operational
NORAD ID: 59954 Int'l Des: 2024-107 Owner: SPXS Country: US Constellation: starlink
LEOCIRCULAR

Über Starlink 11133

Beschreibung wird geladen...

Live-Position

3D-Globus wird geladen...

Nächste Überflüge

Höhenverlauf

Altitude vs Time

uPlot chart will show altitude changes over time

Zweizeiliger Elementsatz

1 59954U 24107K 26093.49372831 -.00003918 00000-0 -27534-4 0 9991
2 59954 53.1579 128.8461 0000879 63.1081 297.0026 15.69684200106045
Epoch: 3. Apr. 2026 • Age: 21 hours

Aktueller Status

Höhe 378.5 km
Geschwindigkeit 7.68 km/s
Subsatellitenpunkt -52.28°S, 53.98°E
Startdatum 5. Juni 2024
Alter 1.8 years
Typ internet

Technische Details

Klassifizierung Payload
Masse 960.00 kg
Trockenmasse 910.00 kg
Gesamtmasse 960.00 kg
Länge 0.30 m
Durchmesser 4.10 m
Spannweite 29.00 m
Form Box + pan
Hersteller SPXS
Bus-Typ Starlink V2MD
Phasenstatus In Orbit
Besitzer/Staat SPXS/US

Große Konstellationen

Loading constellations...